Total_Precipitation_Accumulation
1.67 1.76 1.50 1.41 1.39 1.59 1.85 1.80 1.67 1.72 1.83 1.85 1.67 1.56 1.37 1.04 0.91 0.88 0.90 1.20 1.27 1.27 1.42 1.45 1.40 1.31 1.18 1.03 0.94 0.86 0.84 0.81 0.70 0.55 0.47 0.36 0.27 0.26 0.17 0.11 0.07 0.05 0.05
1.61 1.49 1.48 1.48 1.41 1.58 1.62 1.69 1.73 1.88 1.92 2.02 1.74 1.60 1.45 1.28 1.15 1.12 1.05 1.27 1.29 1.20 1.28 1.45 1.48 1.47 1.46 1.30 1.13 1.05 0.94 0.88 0.75 0.58 0.50 0.42 0.34 0.30 0.26 0.21 0.19 0.12 0.08
1.53 1.55 1.46 1.35 1.41 1.51 1.58 1.65 1.69 1.76 1.66 1.72 1.63 1.59 1.52 1.39 1.31 1.22 1.12 1.07 0.98 1.10 1.23 1.34 1.42 1.43 1.50 1.45 1.38 1.29 1.09 0.91 0.76 0.59 0.46 0.43 0.40 0.33 0.28 0.26 0.27 0.23 0.17
1.28 1.33 1.23 1.22 1.32 1.24 1.23 1.27 1.26 1.31 1.33 1.45 1.42 1.31 1.28 1.29 1.26 1.23 1.10 0.98 0.93 0.78 1.01 1.32 1.44 1.34 1.44 1.56 1.61 1.59 1.28 0.94 0.74 0.62 0.50 0.42 0.41 0.32 0.23 0.19 0.19 0.24 0.19
0.78 0.83 0.80 0.83 0.91 0.91 0.91 0.89 1.03 1.11 1.16 1.26 1.30 1.13 1.08 1.17 1.18 1.16 1.07 0.89 0.93 0.84 0.77 0.97 1.22 1.21 1.41 1.64 1.80 1.83 1.62 1.22 0.87 0.76 0.65 0.54 0.49 0.38 0.26 0.21 0.18 0.17 0.15
0.61 0.58 0.57 0.58 0.57 0.60 0.66 0.70 0.73 0.84 0.86 0.91 0.93 0.88 0.91 0.86 0.94 0.94 0.85 0.82 0.77 0.67 0.64 0.79 1.04 0.95 1.21 1.48 1.66 1.75 1.78 1.65 1.28 1.00 0.83 0.75 0.71 0.53 0.31 0.23 0.21 0.19 0.15
0.43 0.45 0.41 0.40 0.40 0.39 0.40 0.44 0.51 0.57 0.59 0.68 0.72 0.67 0.62 0.59 0.64 0.63 0.64 0.69 0.64 0.62 0.66 0.73 0.83 0.86 0.85 0.99 1.15 1.36 1.68 1.83 1.66 1.35 1.11 0.94 0.89 0.75 0.45 0.31 0.24 0.22 0.23
0.30 0.30 0.30 0.31 0.31 0.29 0.30 0.33 0.36 0.37 0.40 0.51 0.58 0.58 0.51 0.47 0.46 0.41 0.49 0.47 0.47 0.63 0.66 0.66 0.72 0.85 0.86 0.97 0.83 0.92 1.34 1.67 1.90 1.79 1.53 1.23 1.02 0.83 0.62 0.47 0.33 0.26 0.25
0.22 0.23 0.23 0.24 0.27 0.28 0.29 0.32 0.32 0.33 0.32 0.34 0.44 0.56 0.51 0.41 0.35 0.34 0.37 0.42 0.49 0.56 0.59 0.69 0.69 0.69 0.70 0.83 0.97 0.99 1.09 1.26 1.74 2.06 1.96 1.54 1.14 0.88 0.77 0.69 0.58 0.44 0.34
0.18 0.17 0.17 0.16 0.18 0.23 0.29 0.29 0.34 0.34 0.32 0.26 0.30 0.39 0.44 0.46 0.45 0.38 0.36 0.39 0.49 0.54 0.56 0.57 0.59 0.67 0.78 0.89 0.98 1.02 0.89 0.95 1.30 1.73 1.95 1.80 1.43 1.09 0.90 0.87 0.96 0.88 0.63
0.18 0.18 0.18 0.17 0.15 0.15 0.20 0.23 0.31 0.35 0.36 0.31 0.29 0.33 0.36 0.38 0.41 0.41 0.31 0.31 0.38 0.37 0.41 0.46 0.58 0.63 0.72 0.91 1.11 1.00 0.83 0.77 0.93 1.24 1.49 1.61 1.58 1.33 1.07 0.97 1.17 1.26 1.03
0.18 0.17 0.18 0.19 0.19 0.17 0.15 0.15 0.20 0.27 0.34 0.36 0.32 0.30 0.37 0.39 0.39 0.42 0.31 0.24 0.28 0.25 0.28 0.32 0.44 0.57 0.70 0.86 0.88 0.89 0.90 0.84 0.85 0.94 1.07 1.23 1.36 1.36 1.26 1.24 1.39 1.53 1.50
0.16 0.16 0.16 0.18 0.19 0.20 0.19 0.17 0.16 0.19 0.26 0.32 0.31 0.32 0.34 0.33 0.40 0.41 0.33 0.27 0.30 0.31 0.41 0.40 0.45 0.63 0.70 0.90 0.89 0.90 0.89 0.85 0.73 0.68 0.72 0.81 0.93 1.09 1.23 1.28 1.42 1.56 1.67
0.22 0.21 0.16 0.15 0.17 0.18 0.18 0.18 0.17 0.17 0.21 0.26 0.28 0.38 0.37 0.29 0.36 0.38 0.39 0.44 0.43 0.45 0.52 0.50 0.59 0.83 1.04 1.07 1.06 0.94 0.77 0.74 0.65 0.60 0.54 0.57 0.63 0.74 0.84 0.94 1.08 1.18 1.28
0.23 0.21 0.18 0.15 0.15 0.16 0.17 0.18 0.18 0.20 0.23 0.26 0.31 0.41 0.42 0.39 0.40 0.41 0.45 0.56 0.62 0.54 0.53 0.64 0.76 0.85 0.95 0.96 0.96 0.85 0.68 0.67 0.61 0.55 0.50 0.47 0.48 0.52 0.59 0.63 0.67 0.74 0.81
0.19 0.17 0.16 0.14 0.12 0.13 0.16 0.17 0.18 0.23 0.26 0.32 0.39 0.45 0.51 0.51 0.51 0.51 0.52 0.60 0.73 0.71 0.66 0.67 0.75 0.76 0.76 0.62 0.64 0.64 0.61 0.63 0.55 0.50 0.48 0.45 0.42 0.43 0.46 0.50 0.54 0.56 0.58
0.18 0.16 0.15 0.14 0.13 0.13 0.15 0.18 0.20 0.22 0.25 0.31 0.38 0.44 0.48 0.55 0.62 0.63 0.68 0.70 0.73 0.84 0.78 0.66 0.77 0.86 0.78 0.60 0.51 0.51 0.53 0.53 0.51 0.50 0.47 0.46 0.44 0.43 0.42 0.41 0.45 0.48 0.48
0.15 0.15 0.15 0.13 0.11 0.11 0.14 0.19 0.22 0.22 0.25 0.29 0.36 0.46 0.50 0.51 0.57 0.65 0.76 0.79 0.81 0.93 0.92 0.78 0.85 0.94 0.85 0.74 0.61 0.53 0.44 0.43 0.44 0.48 0.47 0.48 0.47 0.44 0.42 0.40 0.38 0.37 0.37
0.15 0.14 0.15 0.13 0.11 0.10 0.11 0.14 0.19 0.23 0.27 0.29 0.34 0.42 0.50 0.58 0.61 0.65 0.75 0.79 0.85 1.00 1.04 0.96 0.96 1.06 1.09 0.88 0.66 0.51 0.42 0.42 0.39 0.43 0.45 0.47 0.47 0.44 0.40 0.39 0.40 0.36 0.32
0.13 0.14 0.15 0.15 0.14 0.12 0.10 0.10 0.12 0.16 0.21 0.27 0.35 0.39 0.43 0.55 0.64 0.69 0.76 0.88 0.96 1.04 1.12 1.10 1.13 1.24 1.24 1.10 0.84 0.57 0.48 0.45 0.43 0.39 0.42 0.42 0.43 0.41 0.38 0.34 0.33 0.33 0.33
0.11 0.15 0.18 0.18 0.18 0.15 0.10 0.10 0.13 0.13 0.15 0.19 0.26 0.33 0.34 0.39 0.49 0.61 0.69 0.79 0.96 1.12 1.27 1.33 1.34 1.50 1.45 1.25 0.99 0.70 0.58 0.52 0.49 0.46 0.43 0.37 0.35 0.33 0.31 0.31 0.30 0.30 0.29
0.15 0.20 0.22 0.22 0.22 0.15 0.10 0.09 0.10 0.12 0.15 0.18 0.22 0.28 0.29 0.29 0.32 0.38 0.48 0.62 0.77 0.94 1.15 1.34 1.46 1.56 1.62 1.47 1.26 1.02 0.71 0.53 0.48 0.50 0.48 0.46 0.42 0.38 0.34 0.30 0.31 0.29 0.29
0.19 0.25 0.27 0.28 0.28 0.28 0.20 0.13 0.09 0.12 0.15 0.19 0.23 0.26 0.21 0.18 0.26 0.30 0.35 0.42 0.52 0.64 0.79 1.01 1.20 1.31 1.49 1.60 1.46 1.17 0.89 0.69 0.55 0.53 0.52 0.48 0.47 0.45 0.42 0.38 0.40 0.34 0.30
0.25 0.28 0.29 0.32 0.35 0.34 0.25 0.16 0.13 0.14 0.18 0.21 0.24 0.27 0.27 0.25 0.27 0.33 0.37 0.37 0.37 0.40 0.48 0.59 0.76 1.00 1.21 1.42 1.47 1.36 1.26 1.01 0.78 0.63 0.57 0.50 0.44 0.42 0.43 0.41 0.41 0.37 0.34
0.32 0.36 0.39 0.41 0.44 0.44 0.33 0.20 0.15 0.18 0.24 0.25 0.27 0.31 0.35 0.32 0.26 0.23 0.31 0.33 0.32 0.32 0.32 0.40 0.53 0.75 1.00 1.18 1.35 1.34 1.24 1.10 0.90 0.67 0.55 0.48 0.41 0.39 0.39 0.36 0.36 0.37 0.35
0.41 0.44 0.47 0.52 0.57 0.57 0.48 0.28 0.21 0.24 0.30 0.33 0.39 0.41 0.38 0.32 0.28 0.20 0.26 0.31 0.29 0.29 0.32 0.33 0.39 0.51 0.66 0.91 1.11 1.13 1.04 0.97 0.86 0.67 0.50 0.44 0.38 0.38 0.40 0.31 0.26 0.27 0.29